Wind_Speed
24 23 23 22 20 19 19 19 19 19 19 18 17 17 18 18 18 16 16 17 17 17 17 17 17 18 19 19 19 20 20 20 20 21 21 22 22 23 24 25 25 26 26
25 23 24 23 21 20 20 20 20 20 20 19 19 19 19 20 20 20 19 19 19 19 19 19 20 21 21 21 21 21 21 21 22 22 23 23 24 25 27 27 28 29 29
25 25 25 24 22 22 22 22 22 21 22 21 21 21 21 22 23 23 22 21 22 21 20 21 21 21 22 22 23 24 24 24 24 25 26 26 27 28 29 30 31 31 32
25 26 26 25 24 24 23 23 23 22 23 23 23 23 23 23 24 25 25 25 23 22 23 23 24 25 25 25 26 26 27 27 27 28 28 29 30 32 33 33 35 36 36
25 25 26 27 27 25 24 24 24 24 24 24 24 24 24 24 25 26 26 26 26 25 25 26 27 27 28 28 28 29 30 30 31 32 33 34 35 36 37 37 38 39 40
25 25 26 26 26 25 25 26 26 25 26 26 26 26 25 26 27 28 28 28 28 28 28 29 29 29 30 31 31 32 32 33 34 34 35 36 38 39 40 41 41 42 43
25 25 25 25 26 27 27 28 27 27 28 27 27 27 27 28 29 29 29 29 30 30 30 31 31 32 32 32 33 33 34 35 36 37 38 39 40 42 43 43 44 45 46
24 25 26 27 27 29 29 29 28 28 28 28 28 27 28 28 29 30 30 31 31 31 32 32 33 33 34 34 35 36 37 38 39 40 41 42 43 44 46 47 48 49 50
25 25 26 26 28 29 30 31 30 30 30 29 29 30 30 31 31 31 30 31 33 33 34 35 35 36 37 37 38 39 40 41 41 43 43 45 46 47 48 50 51 52 52
26 26 27 27 28 29 29 30 31 32 31 30 31 31 32 32 31 31 32 34 35 36 36 36 37 37 38 38 39 40 42 43 44 45 46 47 48 49 50 51 52 53 54
24 25 26 27 28 29 29 29 30 31 31 31 32 33 33 33 33 34 34 34 35 36 38 38 38 39 39 40 41 42 44 45 46 47 49 49 50 51 52 52 53 53 54
24 25 26 27 28 29 30 30 30 30 30 31 32 33 33 34 36 35 36 36 36 37 38 39 40 41 41 42 43 45 46 48 48 49 50 51 52 52 52 53 53 54 54
24 24 26 27 28 29 30 30 31 31 32 32 34 34 34 35 35 36 37 37 37 38 38 39 41 42 43 44 45 47 48 49 50 51 51 52 53 52 52 53 53 53 53
23 23 24 26 27 28 29 30 30 29 30 31 31 32 33 34 34 35 36 37 38 39 39 40 42 43 45 46 47 47 48 49 50 50 51 51 52 52 52 52 52 50 49
23 23 23 23 24 25 25 25 25 26 26 27 28 29 30 33 34 35 37 37 39 41 41 41 43 44 45 46 46 47 48 48 48 49 49 49 49 50 49 48 47 46 45
25 25 25 23 22 22 22 22 23 25 26 26 27 29 30 32 34 35 36 38 40 41 42 43 43 44 45 46 46 47 47 46 47 47 47 47 47 46 45 44 43 42 43
25 26 25 24 23 23 23 23 24 25 26 27 28 30 31 32 34 35 36 38 39 40 41 41 42 44 45 46 46 45 45 45 44 44 44 43 42 41 41 40 40 40 41
24 24 24 25 25 26 26 27 27 28 29 29 31 32 33 34 35 36 37 38 39 39 40 41 42 43 43 43 43 43 43 42 40 39 39 37 37 37 37 37 38 38 38
25 26 26 26 27 27 28 29 30 30 30 31 33 33 34 35 36 36 37 38 38 39 40 41 41 41 41 41 40 40 39 37 35 34 33 33 33 34 34 34 34 34 33
28 28 28 28 28 29 29 30 31 31 32 32 33 34 34 35 36 36 36 37 38 38 39 39 39 39 38 38 37 35 33 32 31 31 30 30 30 31 31 31 31 30 29
29 29 30 30 30 29 29 30 31 31 32 33 33 34 34 35 35 35 35 36 36 37 37 37 36 36 35 34 32 30 29 28 28 28 27 27 28 28 28 28 28 27 27
29 29 28 28 28 28 29 30 31 32 32 33 33 33 34 34 34 34 34 35 35 35 34 34 33 32 31 29 28 26 25 25 25 25 25 25 25 25 25 25 25 25 25
26 26 27 27 27 28 29 30 30 31 32 32 32 32 32 32 33 33 33 33 33 32 32 31 30 29 27 26 25 24 24 23 23 22 22 23 23 23 24 24 24 24 24
24 24 24 25 26 28 29 30 30 30 30 31 31 31 31 31 31 31 31 30 30 29 29 28 27 25 24 23 22 22 21 21 20 20 20 21 21 21 22 22 23 23 23
23 24 24 25 26 27 27 28 28 29 29 29 29 29 29 29 29 29 28 28 27 27 26 25 24 22 21 20 20 19 18 18 18 18 18 19 19 19 20 20 20 21 21
21 22 23 24 24 24 25 26 26 27 27 26 27 27 27 27 27 26 26 25 25 24 22 21 21 20 19 19 18 17 17 17 16 16 17 17 17 17 17 17 18 19 19
Wind_Direction
249 252 251 249 249 250 251 252 253 254 255 258 260 262 266 270 275 274 279 283 287 288 290 291 291 294 294 292 292 292 291 289 288 285 284 280 279 280 280 278 277 276 276
251 248 250 251 248 248 250 252 253 255 257 259 262 264 265 269 274 276 279 281 284 286 287 288 290 291 292 292 291 291 290 288 287 285 283 283 281 280 280 280 278 277 277
250 249 249 249 249 249 251 252 254 256 258 259 262 264 266 270 273 276 277 279 282 284 285 285 289 291 291 291 290 288 288 288 286 284 284 284 283 282 281 279 278 278 276
248 251 248 248 250 250 251 254 254 256 258 259 262 264 267 270 273 275 276 278 280 281 283 285 287 288 289 290 289 287 286 286 286 284 284 284 283 283 283 281 279 278 276
250 251 249 250 250 249 251 254 254 257 258 258 261 264 267 270 272 275 277 277 278 280 283 284 286 288 289 289 289 288 287 286 285 285 284 284 284 284 283 283 281 280 278
249 252 253 251 249 251 253 255 256 258 259 259 262 265 268 271 273 274 276 277 278 281 283 285 286 288 289 289 288 288 288 287 286 285 285 285 284 284 284 283 283 281 281
252 256 255 253 254 255 257 258 258 259 261 262 264 266 269 271 273 273 275 276 279 280 283 285 287 288 290 290 290 290 289 289 288 287 287 286 286 285 284 284 284 284 283
258 257 257 258 259 257 258 260 259 261 262 263 264 267 271 273 273 274 275 277 279 281 283 285 287 289 291 291 290 290 290 290 290 289 288 288 287 286 285 285 284 283 283
261 260 259 260 260 259 259 258 259 261 264 264 265 269 272 274 275 274 277 278 281 283 284 285 286 288 290 291 291 291 291 291 291 290 289 289 288 287 287 286 286 285 285
262 262 263 264 261 262 261 260 258 260 263 264 266 268 270 273 274 275 276 279 281 283 285 285 287 289 291 292 292 292 292 292 292 291 291 290 290 289 289 288 287 287 286
263 263 265 267 264 262 261 260 258 260 262 265 267 269 271 272 274 276 276 278 280 282 285 286 288 290 292 293 293 293 293 293 293 293 292 291 291 291 290 290 289 288 288
264 264 267 268 267 263 260 259 259 261 262 264 266 268 269 272 275 276 277 279 281 284 286 288 290 291 293 294 293 293 293 294 294 294 293 293 292 292 292 291 291 290 289
267 269 268 268 268 264 261 262 262 262 264 264 266 268 270 272 274 277 278 280 283 285 287 289 291 292 293 294 294 295 295 295 295 295 295 294 294 293 293 293 292 291 291
269 270 272 271 270 267 264 265 265 265 266 268 269 269 272 272 274 278 281 284 286 287 290 292 293 294 294 295 296 296 296 296 296 296 296 296 295 295 295 294 294 294 293
270 272 273 273 271 268 267 266 267 268 269 270 270 273 275 275 277 281 284 286 288 290 292 293 294 295 295 296 296 297 298 298 298 298 298 298 298 298 297 297 296 296 295
270 273 275 272 271 270 272 270 268 267 270 273 275 277 278 278 281 284 287 289 291 292 294 295 296 297 298 298 298 298 299 299 300 300 300 300 300 299 299 299 298 298 297
266 267 267 266 267 268 268 268 269 271 273 275 277 279 281 282 285 288 291 292 293 293 294 296 297 298 299 299 299 299 300 300 300 301 301 302 302 302 302 301 301 300 300
263 265 266 266 266 267 269 270 271 272 274 277 280 283 285 287 289 291 292 293 293 295 296 297 298 298 298 299 300 300 301 302 303 303 304 305 306 306 306 305 305 305 304
265 267 268 268 267 269 270 270 273 275 277 279 283 285 287 289 290 291 292 293 295 296 298 298 298 299 299 300 301 302 304 305 306 307 308 309 310 311 312 312 311 311 310
266 266 268 270 268 270 271 272 274 277 280 282 285 287 288 289 291 293 293 294 296 297 298 299 299 300 300 301 302 304 305 307 309 311 312 313 315 316 317 317 317 316 316
264 266 267 268 267 268 272 275 276 279 281 283 286 288 289 290 292 293 295 296 296 297 298 300 301 301 302 303 303 304 305 308 311 314 315 316 318 319 320 321 322 321 321
263 265 265 266 266 269 273 276 279 281 283 285 287 288 290 292 293 294 296 296 297 298 300 300 301 302 303 303 304 306 307 309 312 314 315 318 321 323 324 324 325 325 326
263 264 265 267 267 270 274 277 280 282 284 286 288 290 291 293 293 295 296 296 298 300 300 300 301 302 303 304 304 305 308 311 313 314 317 320 322 324 326 327 328 330 331
263 264 267 268 269 272 276 280 281 283 285 287 289 290 291 292 294 295 296 298 299 300 300 300 301 302 302 303 304 307 310 313 314 316 319 321 323 325 327 329 331 333 335
263 265 268 270 274 277 279 280 282 284 286 288 289 291 292 293 295 296 297 298 298 299 300 300 300 301 302 304 306 309 312 314 315 317 320 322 324 327 330 332 333 335 338
268 271 273 275 277 278 281 283 284 285 287 288 290 292 293 294 295 296 297 297 298 299 300 301 301 301 302 305 306 308 312 313 316 318 320 323 325 328 332 335 338 341 344
Height
5864 5865 5865 5865 5868 5869 5870 5872 5873 5874 5876 5877 5877 5878 5879 5879 5879 5879 5880 5879 5879 5879 5879 5878 5878 5877 5877 5876 5875 5875 5874 5873 5873 5872 5872 5871 5871 5871 5870 5870 5869 5869 5868
5859 5861 5861 5862 5865 5866 5867 5868 5870 5871 5872 5873 5874 5874 5875 5875 5875 5875 5876 5876 5876 5875 5875 5874 5874 5873 5873 5872 5871 5871 5870 5869 5868 5868 5867 5866 5866 5865 5865 5864 5863 5863 5862
5854 5854 5856 5858 5860 5862 5864 5865 5866 5867 5868 5869 5870 5871 5871 5871 5871 5871 5871 5872 5872 5871 5871 5870 5870 5869 5868 5868 5867 5866 5865 5864 5863 5863 5862 5861 5860 5859 5858 5857 5857 5856 5855
5849 5850 5853 5854 5856 5858 5860 5861 5862 5863 5864 5865 5866 5866 5867 5867 5867 5867 5867 5867 5867 5867 5866 5866 5865 5864 5863 5863 5862 5861 5860 5859 5858 5857 5856 5855 5854 5853 5851 5850 5849 5848 5847
5844 5844 5847 5850 5851 5852 5854 5856 5858 5859 5859 5860 5861 5861 5862 5862 5862 5862 5862 5862 5861 5861 5861 5860 5860 5859 5858 5857 5856 5855 5853 5852 5851 5850 5849 5848 5846 5845 5844 5842 5841 5839 5838
5839 5840 5842 5844 5846 5848 5850 5851 5852 5853 5854 5855 5856 5856 5857 5857 5857 5857 5857 5856 5856 5856 5855 5854 5854 5853 5852 5850 5849 5848 5847 5845 5844 5843 5841 5840 5838 5837 5835 5833 5832 5830 5828
5832 5835 5837 5839 5841 5843 5844 5845 5847 5848 5849 5850 5851 5851 5851 5851 5852 5851 5851 5851 5851 5850 5849 5848 5847 5846 5845 5843 5842 5841 5839 5838 5836 5835 5833 5831 5830 5827 5825 5823 5822 5820 5818
5828 5830 5832 5834 5836 5837 5839 5840 5841 5842 5843 5844 5845 5845 5846 5846 5846 5845 5845 5845 5844 5844 5843 5842 5840 5839 5838 5836 5835 5833 5832 5830 5828 5826 5824 5822 5820 5818 5815 5813 5811 5808 5806
5823 5825 5826 5827 5830 5831 5833 5834 5835 5836 5837 5838 5839 5839 5840 5840 5839 5839 5839 5838 5837 5837 5836 5835 5833 5832 5831 5829 5827 5825 5823 5821 5819 5817 5814 5812 5809 5807 5804 5801 5799 5796 5793
5817 5819 5820 5822 5823 5825 5826 5828 5829 5830 5831 5832 5832 5832 5833 5833 5833 5832 5832 5831 5831 5829 5828 5827 5826 5824 5823 5821 5819 5816 5814 5812 5809 5806 5804 5801 5798 5795 5792 5789 5786 5783 5779
5812 5813 5815 5816 5817 5819 5820 5821 5822 5823 5824 5825 5825 5826 5826 5826 5825 5825 5825 5825 5824 5822 5820 5819 5818 5816 5814 5813 5810 5807 5804 5802 5799 5796 5793 5789 5786 5783 5779 5776 5772 5769 5765
5807 5808 5809 5810 5811 5812 5813 5814 5815 5816 5817 5818 5819 5819 5819 5819 5818 5818 5817 5817 5816 5815 5813 5811 5809 5807 5805 5803 5800 5797 5794 5791 5788 5784 5781 5777 5774 5770 5766 5762 5759 5755 5751
5801 5802 5803 5804 5805 5806 5806 5808 5808 5810 5811 5811 5812 5812 5812 5812 5811 5810 5809 5808 5808 5807 5805 5803 5801 5798 5796 5794 5790 5787 5784 5780 5777 5773 5769 5765 5761 5757 5753 5749 5744 5740 5736
5795 5796 5797 5798 5799 5799 5800 5801 5802 5803 5804 5805 5805 5805 5805 5805 5804 5803 5802 5801 5799 5798 5797 5795 5792 5789 5786 5784 5781 5777 5773 5769 5765 5761 5757 5753 5748 5744 5740 5735 5731 5727 5723
5790 5791 5792 5792 5793 5793 5794 5795 5796 5797 5798 5798 5799 5798 5798 5798 5797 5796 5794 5793 5791 5789 5788 5786 5783 5780 5777 5773 5770 5766 5763 5758 5754 5750 5745 5741 5736 5731 5727 5722 5718 5714 5710
5785 5786 5787 5787 5788 5788 5789 5789 5790 5791 5792 5792 5792 5792 5791 5791 5790 5788 5787 5785 5783 5781 5779 5776 5774 5770 5766 5763 5759 5755 5752 5747 5743 5739 5734 5729 5724 5720 5715 5711 5706 5702 5698
5779 5780 5781 5782 5783 5783 5784 5784 5785 5786 5786 5786 5786 5785 5784 5784 5782 5781 5779 5777 5775 5772 5770 5767 5764 5760 5757 5753 5749 5745 5741 5737 5732 5728 5723 5718 5714 5709 5704 5700 5696 5691 5687
5772 5774 5775 5776 5777 5778 5778 5779 5780 5780 5780 5780 5779 5778 5777 5776 5774 5773 5771 5769 5766 5763 5761 5758 5754 5751 5747 5743 5739 5735 5731 5727 5723 5718 5714 5709 5705 5700 5695 5690 5686 5681 5677
5766 5768 5769 5770 5771 5771 5772 5773 5773 5773 5773 5773 5772 5771 5770 5768 5767 5765 5762 5760 5757 5755 5752 5748 5745 5742 5738 5734 5730 5726 5722 5717 5714 5711 5706 5701 5697 5692 5687 5683 5678 5673 5669
5760 5761 5762 5763 5764 5765 5766 5766 5766 5766 5766 5766 5765 5764 5762 5760 5759 5757 5754 5752 5749 5746 5743 5739 5736 5733 5729 5725 5722 5718 5714 5710 5707 5703 5699 5695 5691 5686 5681 5676 5672 5667 5663
5753 5754 5756 5757 5758 5758 5759 5759 5759 5759 5759 5758 5757 5756 5754 5753 5751 5748 5746 5743 5740 5738 5734 5731 5728 5724 5721 5717 5714 5710 5707 5704 5700 5697 5693 5689 5686 5681 5676 5671 5667 5662 5658
5747 5747 5749 5750 5751 5751 5752 5752 5752 5752 5751 5750 5750 5748 5746 5744 5743 5740 5738 5735 5732 5729 5726 5723 5720 5717 5713 5710 5707 5704 5701 5699 5695 5692 5688 5684 5680 5676 5672 5667 5663 5658 5654
5740 5741 5742 5743 5744 5745 5745 5745 5745 5745 5744 5743 5742 5741 5739 5737 5735 5732 5730 5727 5724 5721 5718 5716 5713 5710 5707 5704 5702 5699 5696 5693 5690 5687 5683 5680 5676 5672 5668 5664 5659 5655 5650
5734 5735 5736 5736 5737 5738 5738 5738 5738 5738 5737 5736 5735 5733 5731 5729 5727 5725 5722 5719 5717 5714 5711 5709 5706 5704 5701 5699 5696 5694 5691 5688 5685 5682 5679 5676 5672 5669 5665 5661 5657 5652 5648
5728 5729 5730 5730 5731 5731 5732 5731 5731 5731 5730 5729 5727 5725 5724 5722 5719 5717 5715 5713 5711 5708 5705 5703 5700 5698 5696 5694 5691 5689 5687 5684 5682 5679 5676 5673 5670 5666 5663 5659 5655 5650 5646
5723 5724 5724 5725 5725 5725 5725 5725 5724 5724 5723 5722 5720 5718 5717 5715 5713 5711 5709 5707 5704 5702 5700 5697 5695 5693 5691 5689 5687 5685 5683 5681 5678 5676 5673 5670 5667 5664 5661 5657 5653 5649 5645